Lexington Weather

Lexington, Massachusetts, USA

46°F
10/26/2020 6:39am 
  • Lexington Conditions: Light rain, Overcast
  • Temperature: 45.9°F / 7.7°C 
  • Dew Point: 42.3°FIncreased 1.3°Fsince last hour.
  • Relative Humidity: 87%Increased 4.0% since last hour.
  • Wind: Wind from N N 1 mph, 10-min avg: 1 mph, gust: 2 mph
  • Barometer: 30.27 in Steady
  • Visibility: 10 miles
  • Rain Today: 0.00 in
  •   

Regional Weather Roundup
for Boston / Norton, MA

        
000
ASUS41 KBOX 260804
RWRBOX

REGIONAL WEATHER ROUNDUP
NATIONAL WEATHER SERVICE BOSTON/NORTON MA
400 AM EDT MON OCT 26 2020

NOTE:  "FAIR" INDICATES FEW OR NO CLOUDS BELOW 12,000 FEET WITH NO 
SIGNIFICANT WEATHER AND/OR OBSTRUCTIONS TO VISIBILITY.

MAZALL-260900-
EASTERN MASSACHUSETTS
  
CITY           SKY/WX    TMP DP  RH WIND       PRES   REMARKS
BOSTON         CLOUDY    49  37  63 E17       30.33F                  
BEVERLY        CLOUDY    48  36  63 NE5       30.32F                  
LAWRENCE       CLOUDY    41  35  79 N5        30.36F                  
BEDFORD        CLOUDY    45  36  70 N5        30.32F                  
BLUE HILL        N/A     45  37  73 E13       30.29F                  
NORWOOD        CLOUDY    47  40  76 CALM      30.32F                  
MARSHFIELD     CLOUDY    52  39  62 E10G16    30.31F                  
PLYMOUTH       CLOUDY    49  39  68 E6        30.31F                  
TAUNTON        CLOUDY    49  40  71 CALM      30.31F                  
NEW BEDFORD    CLOUDY    49  41  74 NE7       30.29F                  
$$

MAZALL-260900-
CAPE COD AND THE ISLANDS
  
CITY           SKY/WX    TMP DP  RH WIND       PRES   REMARKS
FALMOUTH       CLOUDY    48  41  76 NE10      30.30F                  
HYANNIS        CLOUDY    50  41  71 E6        30.29F                  
CHATHAM        CLOUDY    51  40  65 E10       30.31F                  
PROVINCETOWN   CLOUDY    50  39  66 E12       30.33F                  
NANTUCKET      LGT RAIN N/A N/A N/A E12       30.28F                  
MARTHAS VNYRD  CLOUDY    51  43  74 E9G20     30.29F                  
$$
 
MAZALL-260900-
CENTRAL AND WESTERN MASSACHUSETTS
  
CITY           SKY/WX    TMP DP  RH WIND       PRES   REMARKS
WORCESTER      LGT RAIN  42  36  79 E5        30.30S                  
FITCHBURG      CLOUDY    42  35  76 CALM      30.34S                  
ORANGE         LGT RAIN  43  37  79 E3        30.31F                  
SPRINGFIELD    DRIZZLE   45  39  81 CALM      30.29F                  
WESTFIELD      CLOUDY    43  41  93 N6        30.30F                  
NORTH ADAMS    LGT RAIN  43  36  76 E17G28    30.25F                  
PITTSFIELD     LGT RAIN  42  36  79 E10       30.24F                  
$$
 
RIZALL-260900-
RHODE ISLAND
  
CITY           SKY/WX    TMP DP  RH WIND       PRES   REMARKS
PROVIDENCE     CLOUDY    47  40  76 NE8       30.31F                  
NEWPORT        CLOUDY    47  40  76 NE8       30.29F                  
BLOCK ISLAND   CLOUDY    51  45  79 E14G23    30.26F                  
SMITHFIELD     CLOUDY    45  41  86 VRB6      30.30F                  
WESTERLY       CLOUDY    48  40  73 NE6       30.27F                  
$$
 
CTZALL-260900-
CONNECTICUT
  
CITY           SKY/WX    TMP DP  RH WIND       PRES   REMARKS
BRADLEY INTL   CLOUDY    44  41  89 NE7       30.28F                  
HARTFORD       CLOUDY    48  38  68 NE6       30.28F                  
BRIDGEPORT     CLOUDY    50  45  83 NE15      30.24F                  
DANBURY        CLOUDY    45  42  89 E9          N/A                   
GROTON         CLOUDY    48  40  73 NE13      30.26F                  
NEW HAVEN      CLOUDY    49  44  83 NE10      30.24F                  
CHESTER        MIX PCPN  45  43  93 NE9       30.25F                  
MERIDEN        CLOUDY    47  39  74 VRB3      30.27F                  
WILLIMANTIC    CLOUDY    46  39  76 NE7       30.29F                  
OXFORD         LGT RAIN  44  41  89 E10       30.24F                  
$$

MEZ002-015-021-024-NHZ003-005-008-011-012-014-VTZ005-008-260900-
NORTHERN NEW ENGLAND
  
CITY           SKY/WX    TMP DP  RH WIND       PRES   REMARKS
PORTLAND ME    MOCLDY    37  29  72 N5        30.39S                  
BANGOR ME      MOCLDY    33  26  75 CALM      30.44R                  
CONCORD NH     CLOUDY    38  28  67 E3        30.34F                  
MANCHESTER NH  CLOUDY    41  30  65 NE3       30.33S                  
NASHUA NH      CLOUDY    40  35  83 CALM      30.35S                  
PORTSMOUTH NH  CLOUDY    40  29  64 NE5       30.34F                  
JAFFREY NH     CLOUDY    38  31  76 CALM      30.30F                  
KEENE NH       CLOUDY    39  34  82 CALM      30.32F                  
BURLINGTON VT  CLOUDY    40  27  59 S3        30.28S                  
MT. WASHINGTON CLOUDY    28 -11  17 SW22G30     N/A  WCI  15          
$$

NYZ052-076-260900-
EASTERN NEW YORK
  
CITY           SKY/WX    TMP DP  RH WIND       PRES   REMARKS
ALBANY         LGT RAIN  36  36 100 CALM      30.27S                  
NEW YORK CITY  DRIZZLE   53  48  83 E15       30.21F                  
$$
 
ANZALL-260900-
MARINE OBSERVATIONS
  
STATION/POSITION TIME  TEMP    WIND        PRES    VSBY  WAVE
                       AIR SEA DIR/SP/G                  HT/PER
                 (UTC) (F)     (DEG/KT/KT) (MB)    (MI)  (FT/S)
BOSTON BUOY      0750   51 57  100/ 16/ 19 1025.9F         5/10
BUZZARDS BAY     0700           90/ 20/ 21 1026.3F
NANTUCKET SOUND  0750      61   90/ 19/ 23   N/A           3/ 4
MASS BAY-STELLWA 0704   51 56   90/ 14/ 17 1027.3S  1 7/8  5/11
ISLE OF SHOALS   0700   49     100/ 15/ 18 1027.1F
S OF BLOCK IS    0726      62                N/A           5/ 6
$$

......................KEY.........................
  SKY/WX - SKY CONDITION/PRESENT WEATHER
  TMP    - TEMPERATURE IN FAHRENHEIT
  DWPT   - DEWPOINT IN FAHRENHEIT
  RH     - RELATIVE HUMIDITY IN PERCENT
  WIND   - DIRECTION AND SPEED IN MPH
  PRES   - MEAN SEA LEVEL PRESSURE IN INCHES OF HG
  WCI    - WIND CHILL INDEX
  VSB    - VISIBILITY IN MILES
  HX     - HEAT INDEX
  TC     - TEMPERATURE IN CELSIUS
  VRB    - VARIABLE WIND DIRECTION
  N/A    - NOT AVAILABLE
  
      

Other recent Regional Weather Roundups

Mon Oct 26, 6:04am

Mon Oct 26, 5:04am

Mon Oct 26, 3:04am

Mon Oct 26, 2:04am

Mon Oct 26, 1:04am

Mon Oct 26, 12:04am

Sun Oct 25, 11:05pm

Sun Oct 25, 10:04pm

Sun Oct 25, 9:04pm

Sun Oct 25, 8:04pm

Sun Oct 25, 7:04pm

Sun Oct 25, 6:04pm

Sun Oct 25, 5:04pm

Sun Oct 25, 4:05pm

Sun Oct 25, 3:04pm

Sun Oct 25, 2:04pm

Sun Oct 25, 1:04pm

Sun Oct 25, 12:04pm

Sun Oct 25, 11:04am

Sun Oct 25, 10:04am

Sun Oct 25, 9:04am

Sun Oct 25, 8:04am

Sun Oct 25, 7:04am

Sun Oct 25, 6:04am

Sun Oct 25, 5:04am

Sun Oct 25, 4:04am

Sun Oct 25, 3:04am

Sun Oct 25, 2:04am

Sun Oct 25, 1:05am

Sun Oct 25, 12:04am

Sat Oct 24, 11:04pm

Sat Oct 24, 10:04pm

Sat Oct 24, 9:04pm

Sat Oct 24, 8:04pm

Sat Oct 24, 7:04pm

Sat Oct 24, 6:04pm

Sat Oct 24, 5:05pm

Sat Oct 24, 4:04pm

Sat Oct 24, 3:04pm

Sat Oct 24, 2:04pm

Sat Oct 24, 1:05pm

Sat Oct 24, 12:04pm

Sat Oct 24, 11:05am

Sat Oct 24, 10:05am

Sat Oct 24, 9:04am

Sat Oct 24, 8:04am

Sat Oct 24, 7:04am

Sat Oct 24, 6:04am

Sat Oct 24, 5:04am

Sat Oct 24, 4:04am

Sat Oct 24, 3:04am

Sat Oct 24, 2:04am

Sat Oct 24, 1:05am

Sat Oct 24, 12:04am

Fri Oct 23, 11:04pm

Fri Oct 23, 10:04pm

Fri Oct 23, 9:04pm

Fri Oct 23, 8:05pm

Fri Oct 23, 7:04pm

Fri Oct 23, 6:04pm

Fri Oct 23, 5:05pm

Fri Oct 23, 4:04pm

Fri Oct 23, 3:04pm

Fri Oct 23, 2:05pm

Fri Oct 23, 1:04pm

Fri Oct 23, 12:04pm

Fri Oct 23, 11:04am

Fri Oct 23, 10:04am

Fri Oct 23, 9:04am

Fri Oct 23, 8:04am

Fri Oct 23, 7:04am

Fri Oct 23, 6:04am

Fri Oct 23, 5:04am

Fri Oct 23, 4:04am

Fri Oct 23, 3:04am

Fri Oct 23, 2:04am

Fri Oct 23, 1:04am

Fri Oct 23, 12:04am

Thu Oct 22, 11:04pm

Thu Oct 22, 10:04pm

Thu Oct 22, 9:05pm

Thu Oct 22, 8:04pm

Thu Oct 22, 7:05pm

Thu Oct 22, 6:04pm

Thu Oct 22, 5:04pm

Thu Oct 22, 4:05pm

Thu Oct 22, 3:04pm

Thu Oct 22, 2:05pm

Thu Oct 22, 1:04pm

Thu Oct 22, 12:04pm

Thu Oct 22, 11:04am

Thu Oct 22, 10:05am

Thu Oct 22, 9:04am

Thu Oct 22, 8:05am

Thu Oct 22, 7:04am

Thu Oct 22, 6:04am

Thu Oct 22, 5:04am

Thu Oct 22, 4:04am

Thu Oct 22, 3:04am

Thu Oct 22, 2:04am

Thu Oct 22, 1:04am

Thu Oct 22, 12:04am

Wed Oct 21, 11:05pm

Wed Oct 21, 10:04pm

Wed Oct 21, 9:04pm

Wed Oct 21, 8:04pm

Wed Oct 21, 7:04pm

Wed Oct 21, 6:04pm

Wed Oct 21, 5:05pm

Wed Oct 21, 4:04pm

Wed Oct 21, 3:04pm

Wed Oct 21, 2:05pm

Wed Oct 21, 1:04pm

Wed Oct 21, 12:04pm

Wed Oct 21, 11:04am

Wed Oct 21, 10:04am

Wed Oct 21, 9:04am

Wed Oct 21, 8:04am

Wed Oct 21, 7:04am

Wed Oct 21, 6:04am

Wed Oct 21, 5:04am

Wed Oct 21, 4:04am

Wed Oct 21, 3:04am

Wed Oct 21, 2:04am

Wed Oct 21, 1:04am

Wed Oct 21, 12:04am

Tue Oct 20, 11:05pm

Tue Oct 20, 10:04pm

Tue Oct 20, 9:04pm

Tue Oct 20, 8:05pm

Tue Oct 20, 7:04pm

Tue Oct 20, 6:04pm

Tue Oct 20, 5:05pm

Tue Oct 20, 4:04pm

Tue Oct 20, 3:05pm

Tue Oct 20, 2:07pm

Tue Oct 20, 1:04pm

Tue Oct 20, 12:04pm

Tue Oct 20, 11:04am

Tue Oct 20, 10:05am

Tue Oct 20, 9:04am

Tue Oct 20, 8:04am

Tue Oct 20, 7:04am

Tue Oct 20, 6:04am

Tue Oct 20, 5:04am

Tue Oct 20, 4:04am

Tue Oct 20, 3:04am

Tue Oct 20, 2:04am

Tue Oct 20, 1:04am

Tue Oct 20, 12:04am

Mon Oct 19, 11:04pm

Mon Oct 19, 10:04pm

Mon Oct 19, 9:04pm

Mon Oct 19, 8:04pm

Mon Oct 19, 7:04pm

Mon Oct 19, 6:04pm

Mon Oct 19, 5:04pm

Mon Oct 19, 4:04pm

Mon Oct 19, 3:04pm

Mon Oct 19, 2:04pm

Mon Oct 19, 1:05pm

Mon Oct 19, 12:04pm

Mon Oct 19, 11:04am

Mon Oct 19, 10:04am

Mon Oct 19, 9:04am

Mon Oct 19, 8:04am

Mon Oct 19, 7:04am

Mon Oct 19, 6:04am

Mon Oct 19, 5:04am

Meta data:

ID: bde951f1-3afa-4776-8120-4e4f5843ec29
Link: https://api.weather.gov/products/bde951f1-3afa-4776-8120-4e4f5843ec29